{"data":{"norad_id":68398,"epoch":"2026-05-24T23:18:49.146624Z","epoch_age_seconds":70732,"freshness":"FRESH","line1":"1 68398U 26063U   26144.97140216  .00018983  00000+0  58875-3 0  9992","line2":"2 68398  97.2852 287.5086 0001353  79.3699 280.7696 15.33450348  9586","mean_motion":15.33450348,"eccentricity":0.0001353,"inclination_deg":97.2852,"raan_deg":287.5086,"arg_perigee_deg":79.3699,"mean_anomaly_deg":280.7696,"bstar":0.00058875,"rev_number":958,"period_min":93.905877153318,"perigee_km":464.60131486428,"apogee_km":466.45321041375,"semimajor_km":6843.664262639,"source":"CELESTRAK","updated_at":"2026-05-25T13:38:21.932256Z"}}